Burlington, VT

12:36 PM EST on November 13, 2019 (GMT -0500)
Burlington International

Weather History for KBTV - September, 2019

Change the Weather History Date:

Friday, September 13, 2019

  Actual Average Record
Temperature  
Mean Temperature 57 °F 62 °F  
Max Temperature 71 °F 72 °F 92 °F (1948)
Min Temperature 42 °F 52 °F 32 °F (1927)
Degree Days  
Heating Degree Days 8 5  
Month to date heating degree days 35 42  
Since 1 July heating degree days 39 84  
Cooling Degree Days 0 2  
Month to date cooling degree days 9 31  
Year to date cooling degree days 589 479  
Growing Degree Days 6 (Base 50)    
Moisture  
Dew Point 43 °F    
Average Humidity 65    
Maximum Humidity 93    
Minimum Humidity 37    
Precipitation  
Precipitation 0.00 in 0.12 in 1.88 in (1925)
Month to date precipitation 2.23 1.46  
Year to date precipitation 28.52 25.53  
Snow  
Snow 0.00 in 0.00 in 0.00 in (2002)
Month to date snowfall 0.0 0.0  
Since 1 July snowfall 0.0 0.0  
Since 1 September snowfall 0.0 0.0  
Snow Depth 0.00 in    
Sea Level Pressure  
Sea Level Pressure 30.41 in    
Wind  
Wind Speed 7 mph (SSE)    
Max Wind Speed 23 mph    
Max Gust Speed 35 mph    
Visibility 10 miles    
Events Fog    
T = Trace of Precipitation, MM = Missing Value Source: NWS Daily Summary

Daily Weather History Graph

Daily Weather History Graph

Search for Another Location

Airport or City:

Astronomy

Sep. 13, 2019 Rise Set
Actual Time 6:28 AM EDT 7:07 PM EDT
Civil Twilight 5:59 AM EDT 7:36 PM EDT
Nautical Twilight 5:24 AM EDT 8:11 PM EDT
Astronomical Twilight 4:48 AM EDT 8:47 PM EDT
Moon 7:22 PM EDT 5:38 AM EDT
Length of Visible Light 13h 37m
Length of Day
12h 38m
Full, 100% of the Moon is Illuminated
Sep 13
Full
Sep 14
Full
Sep 21
Last Quarter
Sep 28
New
Oct 5
First Quarter

Hourly Weather History & Observations

Time (EDT) Temp. Windchill Dew Point Humidity Pressure Visibility Wind Dir Wind Speed Gust Speed Precip Events Conditions
12:54 AM 48.9 °F - 45.0 °F 86% 30.40 in 10.0 mi NE 3.5 mph - N/A   Clear
1:54 AM 46.9 °F - 44.1 °F 90% 30.41 in 10.0 mi Calm Calm - N/A   Clear
2:54 AM 46.0 °F - 43.0 °F 89% 30.41 in 10.0 mi Calm Calm - N/A   Clear
3:54 AM 45.0 °F - 42.1 °F 90% 30.43 in 10.0 mi Calm Calm - N/A   Clear
4:54 AM 44.1 °F - 41.0 °F 89% 30.44 in 10.0 mi Calm Calm - N/A   Clear
6:54 AM 43.0 °F - 39.9 °F 89% 30.47 in 10.0 mi Calm Calm - N/A   Clear
7:33 AM 45.0 °F - 42.1 °F 90% 30.48 in 1.0 mi Calm Calm - N/A Fog Patches of Fog
7:42 AM 46.0 °F 44.8 °F 43.0 °F 89% 30.48 in 1.0 mi NE 3.5 mph - N/A Fog Patches of Fog
7:49 AM 46.4 °F 44.3 °F 42.8 °F 87% 30.48 in 10.0 mi East 4.6 mph - N/A Fog Patches of Fog
7:54 AM 46.0 °F 43.9 °F 43.0 °F 89% 30.49 in 10.0 mi East 4.6 mph - N/A   Clear
8:54 AM 53.1 °F - 45.0 °F 74% 30.50 in 10.0 mi Calm Calm - N/A   Clear
9:54 AM 57.9 °F - 44.1 °F 60% 30.50 in 10.0 mi Calm Calm - N/A   Partly Cloudy
10:54 AM 62.1 °F - 44.1 °F 52% 30.48 in 10.0 mi South 5.8 mph - N/A   Scattered Clouds
11:54 AM 66.0 °F - 44.1 °F 45% 30.48 in 10.0 mi SSW 10.4 mph - N/A   Partly Cloudy
12:54 PM 68.0 °F - 44.1 °F 42% 30.46 in 10.0 mi South 10.4 mph - N/A   Scattered Clouds
1:54 PM 69.1 °F - 45.0 °F 42% 30.43 in 10.0 mi SSW 9.2 mph 18.4 mph N/A   Mostly Cloudy
2:54 PM 70.0 °F - 44.1 °F 39% 30.40 in 10.0 mi South 11.5 mph - N/A   Mostly Cloudy
3:54 PM 70.0 °F - 43.0 °F 38% 30.39 in 10.0 mi South 10.4 mph 24.2 mph N/A   Mostly Cloudy
4:54 PM 71.1 °F - 44.1 °F 38% 30.37 in 10.0 mi South 12.7 mph 19.6 mph N/A   Scattered Clouds
5:54 PM 69.1 °F - 43.0 °F 39% 30.36 in 10.0 mi South 11.5 mph - N/A   Partly Cloudy
6:54 PM 66.0 °F - 43.0 °F 43% 30.34 in 10.0 mi SSE 11.5 mph - N/A   Scattered Clouds
7:54 PM 63.0 °F - 43.0 °F 48% 30.32 in 10.0 mi SSE 9.2 mph - N/A   Mostly Cloudy
8:54 PM 63.0 °F - 43.0 °F 48% 30.32 in 10.0 mi SSE 12.7 mph 20.7 mph N/A   Mostly Cloudy
9:54 PM 62.1 °F - 43.0 °F 50% 30.31 in 10.0 mi SSE 12.7 mph 21.9 mph N/A   Mostly Cloudy
10:54 PM 63.0 °F - 43.0 °F 48% 30.28 in 10.0 mi SSE 13.8 mph 23.0 mph N/A   Mostly Cloudy
11:54 PM 63.0 °F - 44.1 °F 50% 30.26 in 10.0 mi South 16.1 mph 26.5 mph N/A   Mostly Cloudy